QPF
0.02 0.01 0.01 0.01 0.01 0.01 0.01 0.01 0.01 0.01 0.01 0.01 0.01 0.00 0.01 0.01 0.00 0.00 0.01 0.01 0.01 0.00 0.00 0.00 0.00 0.00 0.00 0.00 0.00 0.01 0.01 0.01 0.01 0.01 0.01 0.01 0.01 0.02 0.04 0.05 0.04 0.04 0.03
0.01 0.01 0.01 0.01 0.02 0.02 0.02 0.01 0.01 0.01 0.01 0.01 0.01 0.00 0.00 0.00 0.00 0.01 0.01 0.01 0.01 0.01 0.00 0.00 0.00 0.00 0.00 0.00 0.01 0.02 0.01 0.01 0.01 0.01 0.01 0.01 0.01 0.01 0.01 0.02 0.02 0.02 0.02
0.01 0.01 0.01 0.02 0.02 0.02 0.02 0.01 0.02 0.02 0.01 0.01 0.00 0.00 0.00 0.00 0.00 0.01 0.01 0.01 0.01 0.01 0.00 0.00 0.00 0.00 0.00 0.00 0.00 0.01 0.01 0.01 0.01 0.01 0.02 0.01 0.01 0.00 0.00 0.01 0.01 0.01 0.01
0.01 0.01 0.01 0.01 0.01 0.02 0.01 0.01 0.01 0.02 0.02 0.01 0.00 0.00 0.00 0.00 0.01 0.01 0.01 0.01 0.01 0.00 0.00 0.01 0.00 0.00 0.00 0.00 0.00 0.00 0.01 0.01 0.02 0.01 0.01 0.01 0.01 0.00 0.00 0.00 0.00 0.01 0.01
0.01 0.01 0.01 0.01 0.01 0.01 0.01 0.01 0.01 0.01 0.02 0.02 0.01 0.00 0.00 0.00 0.01 0.02 0.01 0.01 0.01 0.01 0.01 0.01 0.01 0.00 0.00 0.00 0.00 0.00 0.00 0.01 0.01 0.01 0.00 0.00 0.00 0.00 0.00 0.00 0.00 0.00 0.01
0.01 0.01 0.01 0.01 0.01 0.01 0.01 0.01 0.01 0.01 0.01 0.02 0.01 0.00 0.00 0.00 0.01 0.01 0.01 0.01 0.01 0.00 0.00 0.01 0.00 0.00 0.00 0.00 0.00 0.00 0.00 0.00 0.00 0.00 0.01 0.01 0.01 0.01 0.01 0.01 0.00 0.00 0.00
0.02 0.01 0.01 0.01 0.01 0.01 0.01 0.00 0.00 0.00 0.01 0.01 0.01 0.00 0.00 0.01 0.01 0.01 0.01 0.01 0.01 0.00 0.00 0.01 0.00 0.00 0.00 0.00 0.00 0.00 0.00 0.01 0.01 0.01 0.01 0.01 0.01 0.01 0.01 0.01 0.01 0.00 0.01
0.01 0.02 0.03 0.02 0.01 0.01 0.01 0.01 0.00 0.00 0.00 0.01 0.01 0.00 0.00 0.00 0.01 0.01 0.00 0.01 0.00 0.01 0.01 0.01 0.00 0.00 0.00 0.00 0.00 0.01 0.01 0.01 0.02 0.02 0.01 0.01 0.02 0.01 0.01 0.01 0.00 0.00 0.00
0.01 0.02 0.03 0.03 0.02 0.01 0.01 0.01 0.01 0.00 0.01 0.00 0.01 0.01 0.00 0.00 0.00 0.00 0.00 0.00 0.01 0.01 0.01 0.01 0.01 0.01 0.00 0.00 0.00 0.01 0.01 0.01 0.01 0.01 0.01 0.01 0.01 0.01 0.00 0.00 0.00 0.00 0.00
0.02 0.03 0.03 0.02 0.02 0.02 0.02 0.02 0.02 0.02 0.01 0.01 0.01 0.02 0.02 0.00 0.00 0.00 0.00 0.00 0.00 0.00 0.00 0.00 0.01 0.01 0.01 0.00 0.00 0.00 0.00 0.00 0.00 0.00 0.00 0.00 0.01 0.01 0.00 0.00 0.00 0.00 0.00
0.03 0.04 0.03 0.02 0.02 0.02 0.02 0.02 0.02 0.02 0.01 0.01 0.01 0.02 0.01 0.01 0.01 0.00 0.00 0.00 0.00 0.00 0.00 0.00 0.00 0.00 0.00 0.00 0.00 0.00 0.00 0.00 0.00 0.00 0.00 0.00 0.00 0.00 0.00 0.00 0.00 0.00 0.00
0.03 0.03 0.03 0.03 0.02 0.02 0.02 0.02 0.02 0.02 0.01 0.01 0.01 0.01 0.01 0.01 0.01 0.01 0.01 0.01 0.01 0.01 0.01 0.00 0.00 0.00 0.00 0.00 0.00 0.00 0.00 0.00 0.01 0.00 0.00 0.00 0.00 0.00 0.00 0.00 0.00 0.00 0.00
0.01 0.02 0.02 0.02 0.01 0.02 0.02 0.02 0.02 0.02 0.01 0.01 0.01 0.01 0.02 0.02 0.01 0.01 0.01 0.01 0.01 0.01 0.01 0.01 0.01 0.00 0.00 0.00 0.00 0.00 0.00 0.00 0.00 0.00 0.00 0.00 0.00 0.00 0.00 0.00 0.00 0.00 0.00
0.01 0.01 0.02 0.02 0.02 0.02 0.01 0.01 0.02 0.02 0.01 0.01 0.00 0.01 0.02 0.02 0.02 0.01 0.01 0.00 0.00 0.01 0.01 0.01 0.01 0.01 0.00 0.00 0.00 0.00 0.00 0.00 0.00 0.00 0.00 0.00 0.00 0.00 0.00 0.00 0.00 0.00 0.00
0.01 0.01 0.01 0.02 0.02 0.02 0.01 0.01 0.02 0.02 0.01 0.01 0.01 0.00 0.01 0.02 0.02 0.01 0.01 0.00 0.00 0.00 0.00 0.01 0.01 0.01 0.01 0.01 0.01 0.01 0.01 0.00 0.00 0.00 0.00 0.01 0.00 0.00 0.00 0.00 0.00 0.00 0.00
0.01 0.01 0.01 0.02 0.02 0.02 0.02 0.01 0.01 0.01 0.02 0.01 0.01 0.00 0.01 0.00 0.01 0.01 0.01 0.00 0.01 0.00 0.00 0.01 0.01 0.01 0.01 0.02 0.02 0.01 0.01 0.01 0.00 0.00 0.00 0.00 0.01 0.01 0.00 0.00 0.00 0.00 0.00
0.01 0.01 0.01 0.01 0.02 0.01 0.01 0.01 0.01 0.01 0.01 0.01 0.01 0.01 0.01 0.00 0.00 0.00 0.01 0.00 0.00 0.01 0.01 0.01 0.01 0.02 0.01 0.01 0.02 0.02 0.01 0.01 0.01 0.01 0.00 0.01 0.01 0.01 0.01 0.01 0.01 0.00 0.00
0.00 0.01 0.01 0.01 0.01 0.02 0.02 0.01 0.01 0.01 0.01 0.01 0.01 0.01 0.01 0.00 0.00 0.00 0.01 0.01 0.01 0.02 0.02 0.01 0.01 0.02 0.02 0.01 0.02 0.02 0.01 0.01 0.01 0.01 0.01 0.01 0.01 0.01 0.01 0.01 0.00 0.00 0.00
0.00 0.00 0.01 0.01 0.01 0.01 0.01 0.01 0.01 0.00 0.00 0.00 0.01 0.01 0.00 0.00 0.00 0.00 0.01 0.02 0.01 0.02 0.01 0.02 0.02 0.02 0.03 0.04 0.03 0.02 0.01 0.01 0.01 0.01 0.01 0.01 0.01 0.01 0.01 0.00 0.00 0.00 0.00
0.00 0.00 0.01 0.01 0.01 0.01 0.01 0.01 0.01 0.00 0.00 0.00 0.01 0.01 0.00 0.00 0.00 0.01 0.01 0.01 0.01 0.01 0.01 0.02 0.02 0.02 0.05 0.05 0.04 0.03 0.02 0.01 0.02 0.01 0.01 0.01 0.00 0.01 0.00 0.00 0.00 0.00 0.00
0.00 0.00 0.00 0.00 0.01 0.02 0.02 0.02 0.02 0.02 0.01 0.01 0.01 0.01 0.01 0.00 0.01 0.01 0.01 0.01 0.01 0.01 0.02 0.02 0.02 0.02 0.03 0.03 0.02 0.02 0.01 0.01 0.02 0.01 0.01 0.00 0.00 0.01 0.00 0.00 0.00 0.00 0.00
0.00 0.00 0.00 0.00 0.01 0.01 0.02 0.03 0.02 0.02 0.02 0.02 0.01 0.01 0.01 0.01 0.01 0.01 0.02 0.02 0.02 0.02 0.02 0.02 0.02 0.02 0.02 0.02 0.02 0.02 0.02 0.02 0.02 0.02 0.01 0.01 0.01 0.00 0.00 0.00 0.00 0.01 0.00
0.00 0.00 0.00 0.00 0.00 0.01 0.01 0.02 0.02 0.02 0.02 0.02 0.02 0.02 0.02 0.03 0.03 0.02 0.02 0.02 0.02 0.02 0.02 0.02 0.02 0.02 0.02 0.02 0.02 0.03 0.03 0.02 0.01 0.01 0.02 0.01 0.01 0.00 0.00 0.00 0.00 0.01 0.01
0.00 0.00 0.00 0.00 0.01 0.01 0.01 0.01 0.01 0.01 0.01 0.02 0.03 0.02 0.02 0.03 0.04 0.04 0.04 0.03 0.03 0.04 0.04 0.04 0.03 0.03 0.03 0.02 0.02 0.02 0.02 0.01 0.01 0.01 0.01 0.01 0.01 0.01 0.01 0.01 0.01 0.01 0.01
0.00 0.00 0.00 0.00 0.01 0.01 0.01 0.02 0.02 0.01 0.02 0.02 0.02 0.02 0.02 0.03 0.04 0.05 0.05 0.04 0.04 0.05 0.05 0.05 0.04 0.03 0.03 0.03 0.03 0.03 0.03 0.03 0.02 0.01 0.01 0.01 0.01 0.01 0.01 0.01 0.01 0.01 0.01
0.00 0.01 0.01 0.01 0.01 0.01 0.01 0.02 0.03 0.03 0.02 0.03 0.03 0.03 0.03 0.03 0.02 0.02 0.03 0.04 0.04 0.05 0.04 0.03 0.03 0.03 0.03 0.03 0.02 0.02 0.02 0.02 0.02 0.01 0.01 0.01 0.01 0.02 0.01 0.01 0.01 0.01 0.01
MSLP
1016.21 1016.10 1016.02 1015.99 1016.01 1016.09 1016.24 1016.47 1016.77 1017.11 1017.47 1017.80 1018.06 1018.24 1018.31 1018.27 1018.14 1017.96 1017.77 1017.59 1017.46 1017.38 1017.36 1017.36 1017.37 1017.37 1017.35 1017.29 1017.22 1017.14 1017.09 1017.07 1017.09 1017.14 1017.20 1017.23 1017.18 1017.04 1016.76 1016.37 1015.89 1015.35 1014.81
1016.18 1016.12 1016.10 1016.09 1016.12 1016.20 1016.33 1016.54 1016.83 1017.18 1017.57 1017.93 1018.25 1018.47 1018.57 1018.55 1018.43 1018.24 1018.01 1017.81 1017.64 1017.54 1017.49 1017.49 1017.50 1017.50 1017.49 1017.44 1017.37 1017.30 1017.26 1017.27 1017.33 1017.43 1017.56 1017.67 1017.73 1017.70 1017.56 1017.30 1016.95 1016.54 1016.11
1016.09 1016.10 1016.15 1016.20 1016.26 1016.34 1016.46 1016.66 1016.94 1017.28 1017.67 1018.06 1018.41 1018.66 1018.79 1018.80 1018.69 1018.50 1018.27 1018.05 1017.87 1017.75 1017.69 1017.67 1017.68 1017.68 1017.65 1017.60 1017.54 1017.48 1017.45 1017.47 1017.56 1017.71 1017.90 1018.09 1018.25 1018.33 1018.31 1018.18 1017.96 1017.68 1017.36
1015.93 1016.02 1016.14 1016.26 1016.37 1016.48 1016.61 1016.80 1017.06 1017.39 1017.77 1018.17 1018.52 1018.80 1018.96 1019.00 1018.91 1018.74 1018.53 1018.31 1018.13 1018.01 1017.94 1017.92 1017.91 1017.90 1017.87 1017.81 1017.74 1017.68 1017.66 1017.70 1017.81 1017.99 1018.22 1018.47 1018.70 1018.86 1018.94 1018.92 1018.81 1018.64 1018.42
1015.69 1015.87 1016.07 1016.27 1016.43 1016.58 1016.73 1016.92 1017.17 1017.49 1017.85 1018.24 1018.59 1018.88 1019.06 1019.13 1019.08 1018.94 1018.76 1018.57 1018.41 1018.29 1018.23 1018.20 1018.19 1018.17 1018.13 1018.06 1017.99 1017.92 1017.90 1017.94 1018.06 1018.26 1018.51 1018.78 1019.05 1019.26 1019.41 1019.47 1019.45 1019.36 1019.22
1015.42 1015.65 1015.93 1016.20 1016.43 1016.63 1016.81 1017.00 1017.24 1017.54 1017.89 1018.25 1018.60 1018.89 1019.09 1019.18 1019.17 1019.07 1018.93 1018.78 1018.65 1018.56 1018.51 1018.49 1018.48 1018.46 1018.41 1018.35 1018.27 1018.20 1018.17 1018.21 1018.32 1018.51 1018.75 1019.02 1019.28 1019.51 1019.69 1019.79 1019.83 1019.81 1019.75
1015.15 1015.42 1015.75 1016.08 1016.36 1016.60 1016.81 1017.02 1017.25 1017.54 1017.86 1018.21 1018.54 1018.83 1019.04 1019.16 1019.17 1019.12 1019.02 1018.92 1018.83 1018.77 1018.74 1018.74 1018.75 1018.73 1018.70 1018.64 1018.57 1018.51 1018.48 1018.50 1018.59 1018.74 1018.95 1019.18 1019.42 1019.64 1019.81 1019.93 1020.01 1020.04 1020.04
1014.92 1015.20 1015.56 1015.92 1016.24 1016.52 1016.75 1016.97 1017.21 1017.48 1017.79 1018.12 1018.44 1018.72 1018.93 1019.06 1019.11 1019.09 1019.04 1018.97 1018.92 1018.90 1018.91 1018.94 1018.97 1018.98 1018.97 1018.94 1018.89 1018.83 1018.80 1018.81 1018.87 1018.98 1019.14 1019.32 1019.51 1019.69 1019.84 1019.96 1020.06 1020.13 1020.18
1014.76 1015.03 1015.39 1015.76 1016.10 1016.38 1016.63 1016.86 1017.10 1017.37 1017.67 1017.99 1018.30 1018.58 1018.80 1018.94 1019.01 1019.01 1018.99 1018.96 1018.95 1018.96 1019.01 1019.07 1019.14 1019.19 1019.22 1019.22 1019.21 1019.17 1019.15 1019.16 1019.19 1019.26 1019.36 1019.48 1019.60 1019.73 1019.85 1019.97 1020.08 1020.18 1020.29
1014.70 1014.94 1015.27 1015.62 1015.95 1016.23 1016.48 1016.72 1016.97 1017.25 1017.55 1017.87 1018.18 1018.45 1018.67 1018.82 1018.90 1018.93 1018.93 1018.93 1018.94 1018.98 1019.06 1019.16 1019.27 1019.37 1019.45 1019.51 1019.53 1019.54 1019.54 1019.54 1019.56 1019.59 1019.64 1019.70 1019.77 1019.86 1019.95 1020.05 1020.17 1020.31 1020.46
1014.74 1014.94 1015.21 1015.52 1015.81 1016.08 1016.32 1016.57 1016.83 1017.12 1017.44 1017.77 1018.09 1018.37 1018.60 1018.76 1018.85 1018.89 1018.91 1018.92 1018.95 1019.01 1019.11 1019.25 1019.40 1019.55 1019.69 1019.80 1019.88 1019.93 1019.96 1019.98 1019.99 1020.00 1020.01 1020.04 1020.07 1020.11 1020.18 1020.28 1020.41 1020.58 1020.77
1014.84 1014.98 1015.20 1015.45 1015.69 1015.92 1016.16 1016.41 1016.69 1017.00 1017.35 1017.71 1018.06 1018.36 1018.61 1018.78 1018.88 1018.93 1018.96 1018.97 1019.01 1019.09 1019.21 1019.37 1019.56 1019.75 1019.94 1020.11 1020.24 1020.35 1020.42 1020.46 1020.48 1020.49 1020.48 1020.48 1020.49 1020.51 1020.57 1020.67 1020.82 1021.01 1021.23
1014.96 1015.05 1015.20 1015.38 1015.57 1015.77 1015.99 1016.24 1016.55 1016.90 1017.28 1017.68 1018.07 1018.41 1018.68 1018.88 1019.00 1019.07 1019.10 1019.13 1019.17 1019.26 1019.39 1019.57 1019.78 1020.01 1020.24 1020.45 1020.63 1020.78 1020.89 1020.97 1021.01 1021.02 1021.02 1021.01 1021.01 1021.03 1021.09 1021.20 1021.37 1021.57 1021.82
1015.03 1015.07 1015.16 1015.28 1015.42 1015.58 1015.79 1016.06 1016.39 1016.78 1017.21 1017.66 1018.09 1018.48 1018.80 1019.03 1019.18 1019.28 1019.33 1019.37 1019.43 1019.52 1019.66 1019.85 1020.07 1020.32 1020.57 1020.82 1021.04 1021.22 1021.37 1021.48 1021.54 1021.58 1021.59 1021.59 1021.60 1021.63 1021.70 1021.82 1022.00 1022.22 1022.48
1015.02 1015.02 1015.06 1015.13 1015.22 1015.36 1015.57 1015.84 1016.20 1016.62 1017.10 1017.60 1018.08 1018.52 1018.89 1019.17 1019.38 1019.51 1019.60 1019.68 1019.75 1019.86 1020.01 1020.20 1020.43 1020.68 1020.95 1021.21 1021.45 1021.66 1021.83 1021.96 1022.06 1022.12 1022.16 1022.18 1022.21 1022.26 1022.35 1022.49 1022.68 1022.91 1023.17
1014.89 1014.87 1014.87 1014.90 1014.97 1015.09 1015.29 1015.57 1015.95 1016.41 1016.92 1017.46 1017.99 1018.49 1018.91 1019.26 1019.52 1019.72 1019.86 1019.99 1020.10 1020.24 1020.40 1020.60 1020.83 1021.08 1021.35 1021.61 1021.85 1022.08 1022.27 1022.42 1022.54 1022.63 1022.70 1022.76 1022.83 1022.91 1023.02 1023.17 1023.37 1023.61 1023.88
1014.64 1014.61 1014.60 1014.61 1014.66 1014.78 1014.97 1015.27 1015.65 1016.13 1016.66 1017.23 1017.79 1018.33 1018.81 1019.22 1019.56 1019.83 1020.06 1020.25 1020.43 1020.61 1020.81 1021.03 1021.26 1021.51 1021.76 1022.02 1022.26 1022.48 1022.69 1022.86 1023.01 1023.14 1023.25 1023.35 1023.45 1023.57 1023.71 1023.89 1024.10 1024.34 1024.60
1014.30 1014.28 1014.26 1014.27 1014.33 1014.45 1014.64 1014.93 1015.32 1015.79 1016.32 1016.89 1017.47 1018.03 1018.56 1019.04 1019.45 1019.82 1020.14 1020.42 1020.68 1020.93 1021.18 1021.43 1021.69 1021.94 1022.19 1022.44 1022.68 1022.90 1023.12 1023.31 1023.50 1023.67 1023.82 1023.98 1024.13 1024.29 1024.47 1024.67 1024.89 1025.14 1025.39
1013.94 1013.92 1013.92 1013.95 1014.01 1014.14 1014.34 1014.61 1014.98 1015.42 1015.93 1016.48 1017.05 1017.63 1018.18 1018.72 1019.21 1019.67 1020.09 1020.49 1020.85 1021.19 1021.51 1021.81 1022.09 1022.37 1022.63 1022.88 1023.12 1023.36 1023.59 1023.82 1024.05 1024.27 1024.48 1024.69 1024.91 1025.12 1025.34 1025.57 1025.80 1026.05 1026.29
1013.60 1013.61 1013.63 1013.68 1013.77 1013.90 1014.09 1014.35 1014.69 1015.08 1015.54 1016.05 1016.59 1017.15 1017.73 1018.30 1018.87 1019.42 1019.95 1020.45 1020.93 1021.37 1021.77 1022.14 1022.48 1022.79 1023.07 1023.34 1023.61 1023.87 1024.14 1024.42 1024.70 1024.98 1025.26 1025.54 1025.81 1026.08 1026.34 1026.60 1026.85 1027.10 1027.33
1013.35 1013.39 1013.44 1013.52 1013.63 1013.77 1013.96 1014.19 1014.47 1014.81 1015.21 1015.65 1016.15 1016.69 1017.26 1017.87 1018.50 1019.13 1019.76 1020.37 1020.95 1021.50 1021.99 1022.44 1022.84 1023.20 1023.53 1023.84 1024.15 1024.46 1024.78 1025.11 1025.46 1025.81 1026.17 1026.52 1026.86 1027.18 1027.48 1027.77 1028.03 1028.26 1028.47
1013.23 1013.29 1013.38 1013.49 1013.62 1013.77 1013.94 1014.14 1014.38 1014.65 1014.98 1015.36 1015.80 1016.30 1016.87 1017.49 1018.17 1018.87 1019.58 1020.29 1020.97 1021.61 1022.19 1022.72 1023.19 1023.62 1024.01 1024.37 1024.74 1025.11 1025.49 1025.90 1026.32 1026.75 1027.18 1027.60 1028.00 1028.37 1028.71 1029.01 1029.27 1029.49 1029.66
1013.25 1013.34 1013.46 1013.60 1013.74 1013.90 1014.06 1014.23 1014.41 1014.63 1014.89 1015.21 1015.60 1016.07 1016.62 1017.26 1017.96 1018.71 1019.49 1020.27 1021.03 1021.75 1022.41 1023.01 1023.55 1024.04 1024.50 1024.93 1025.36 1025.80 1026.26 1026.74 1027.24 1027.74 1028.25 1028.73 1029.18 1029.59 1029.95 1030.25 1030.49 1030.68 1030.81
1013.38 1013.50 1013.65 1013.81 1013.97 1014.13 1014.29 1014.43 1014.58 1014.75 1014.96 1015.24 1015.59 1016.03 1016.57 1017.21 1017.93 1018.72 1019.54 1020.37 1021.19 1021.96 1022.68 1023.34 1023.94 1024.49 1025.01 1025.51 1026.01 1026.52 1027.05 1027.61 1028.18 1028.75 1029.31 1029.84 1030.32 1030.75 1031.11 1031.40 1031.62 1031.76 1031.83
1013.59 1013.73 1013.91 1014.09 1014.28 1014.44 1014.59 1014.72 1014.85 1015.00 1015.19 1015.44 1015.77 1016.21 1016.75 1017.39 1018.13 1018.93 1019.78 1020.64 1021.48 1022.29 1023.04 1023.74 1024.38 1024.98 1025.55 1026.10 1026.67 1027.25 1027.85 1028.47 1029.09 1029.71 1030.31 1030.86 1031.36 1031.79 1032.13 1032.39 1032.56 1032.65 1032.66
1013.83 1014.01 1014.21 1014.41 1014.61 1014.79 1014.94 1015.08 1015.21 1015.36 1015.55 1015.81 1016.15 1016.59 1017.14 1017.80 1018.55 1019.36 1020.22 1021.08 1021.93 1022.75 1023.51 1024.23 1024.89 1025.52 1026.13 1026.74 1027.35 1027.98 1028.63 1029.30 1029.96 1030.61 1031.22 1031.78 1032.27 1032.67 1032.98 1033.19 1033.31 1033.33 1033.28
Thickness
5717 5718 5718 5718 5716 5715 5713 5712 5710 5709 5708 5706 5705 5703 5702 5703 5704 5704 5704 5704 5704 5703 5702 5700 5699 5697 5695 5694 5693 5691 5688 5686 5685 5684 5681 5681 5682 5682 5682 5683 5684 5686 5687
5713 5715 5715 5714 5713 5712 5711 5710 5708 5707 5707 5706 5704 5703 5702 5701 5701 5702 5702 5702 5701 5701 5700 5699 5697 5695 5694 5692 5691 5690 5687 5685 5684 5681 5677 5674 5675 5677 5679 5679 5680 5681 5683
5710 5711 5711 5711 5711 5709 5709 5709 5707 5706 5705 5705 5703 5702 5700 5699 5698 5698 5698 5699 5699 5699 5698 5697 5696 5694 5693 5691 5690 5689 5687 5683 5681 5680 5677 5672 5669 5670 5674 5675 5676 5677 5678
5711 5710 5710 5710 5709 5709 5709 5707 5706 5704 5704 5703 5702 5699 5696 5694 5694 5695 5696 5696 5697 5697 5696 5695 5694 5693 5692 5690 5689 5688 5686 5684 5680 5678 5678 5676 5674 5669 5667 5670 5673 5674 5674
5711 5710 5710 5710 5710 5709 5707 5706 5704 5703 5702 5701 5700 5698 5696 5694 5693 5693 5694 5694 5694 5694 5694 5693 5693 5691 5690 5689 5688 5687 5686 5684 5681 5678 5677 5675 5672 5671 5667 5665 5666 5669 5671
5711 5710 5710 5710 5708 5707 5706 5704 5702 5701 5700 5700 5699 5697 5695 5693 5692 5691 5691 5690 5690 5691 5691 5691 5691 5690 5689 5688 5687 5686 5684 5683 5681 5679 5677 5675 5673 5670 5667 5664 5662 5663 5666
5710 5708 5707 5707 5706 5705 5704 5702 5700 5699 5698 5698 5697 5696 5695 5693 5692 5690 5689 5688 5687 5688 5688 5689 5688 5688 5687 5686 5685 5684 5682 5681 5679 5678 5676 5675 5674 5672 5668 5665 5661 5660 5661
5709 5708 5708 5706 5706 5705 5703 5701 5699 5698 5697 5696 5696 5695 5695 5693 5692 5691 5690 5688 5687 5687 5687 5687 5686 5686 5685 5684 5683 5682 5680 5679 5678 5677 5675 5674 5672 5671 5669 5666 5662 5658 5656
5708 5707 5706 5706 5705 5704 5703 5701 5699 5697 5696 5696 5695 5694 5693 5693 5691 5690 5689 5688 5687 5687 5686 5685 5684 5684 5683 5682 5681 5679 5678 5677 5676 5675 5674 5672 5671 5670 5668 5666 5664 5659 5654
5706 5706 5705 5705 5705 5704 5703 5701 5699 5697 5696 5695 5694 5694 5693 5692 5691 5690 5689 5688 5687 5686 5685 5684 5683 5682 5681 5680 5679 5677 5676 5675 5674 5673 5672 5670 5669 5668 5666 5664 5662 5660 5656
5705 5705 5705 5704 5704 5702 5701 5699 5698 5696 5695 5694 5694 5693 5692 5692 5691 5689 5689 5688 5686 5686 5684 5683 5682 5681 5679 5679 5677 5675 5674 5673 5671 5671 5669 5668 5667 5665 5663 5662 5659 5657 5654
5704 5704 5704 5702 5701 5700 5699 5698 5697 5696 5695 5694 5693 5692 5691 5690 5689 5688 5688 5687 5686 5685 5684 5682 5681 5679 5678 5677 5675 5673 5672 5670 5668 5667 5666 5665 5664 5662 5660 5658 5656 5653 5651
5700 5700 5700 5698 5698 5698 5698 5697 5696 5695 5694 5693 5691 5690 5689 5688 5688 5687 5687 5686 5685 5683 5682 5681 5679 5678 5676 5674 5673 5671 5669 5668 5666 5665 5664 5662 5661 5658 5656 5654 5652 5650 5648
5697 5697 5696 5696 5696 5696 5696 5696 5695 5694 5693 5692 5690 5689 5688 5687 5687 5686 5685 5684 5683 5682 5680 5679 5678 5676 5675 5673 5671 5669 5667 5665 5664 5662 5661 5659 5658 5656 5654 5651 5648 5645 5642
5694 5695 5694 5695 5695 5695 5695 5694 5693 5693 5692 5690 5689 5688 5688 5687 5686 5685 5683 5682 5681 5680 5678 5677 5675 5674 5672 5671 5668 5666 5664 5661 5660 5659 5657 5656 5655 5654 5651 5648 5645 5642 5638
5693 5694 5694 5694 5693 5693 5693 5693 5692 5691 5690 5689 5688 5688 5686 5685 5683 5682 5681 5679 5678 5677 5675 5673 5672 5670 5670 5669 5667 5664 5661 5658 5656 5654 5653 5652 5651 5650 5648 5646 5643 5639 5634
5693 5693 5694 5694 5694 5694 5694 5692 5692 5691 5688 5687 5686 5685 5684 5682 5681 5680 5678 5676 5674 5673 5671 5670 5668 5667 5666 5666 5664 5661 5658 5654 5652 5650 5648 5647 5646 5644 5642 5640 5637 5634 5631
5692 5692 5693 5693 5693 5694 5693 5693 5691 5689 5687 5685 5684 5683 5681 5680 5678 5676 5675 5673 5671 5669 5667 5666 5665 5663 5663 5662 5660 5657 5653 5650 5647 5645 5643 5641 5639 5638 5636 5633 5629 5626 5623
5693 5693 5693 5692 5692 5691 5691 5690 5688 5687 5685 5684 5683 5682 5680 5678 5675 5673 5671 5669 5667 5665 5664 5662 5660 5659 5658 5657 5655 5652 5648 5645 5642 5640 5638 5636 5634 5633 5630 5626 5622 5619 5616
5692 5691 5691 5690 5690 5689 5689 5687 5685 5684 5684 5684 5683 5682 5679 5676 5674 5672 5669 5666 5664 5662 5660 5658 5656 5655 5653 5652 5651 5648 5644 5639 5636 5634 5632 5630 5628 5626 5623 5619 5615 5611 5608
5690 5689 5688 5687 5687 5687 5685 5683 5682 5682 5684 5684 5682 5679 5677 5675 5672 5669 5666 5663 5660 5657 5655 5652 5651 5649 5648 5647 5646 5643 5639 5635 5631 5628 5625 5624 5622 5620 5617 5614 5610 5606 5602
5685 5685 5684 5683 5684 5683 5682 5681 5681 5683 5682 5681 5678 5676 5674 5672 5669 5665 5661 5658 5655 5652 5649 5646 5644 5643 5642 5641 5639 5637 5634 5631 5627 5623 5620 5618 5616 5614 5611 5607 5604 5600 5595
5680 5680 5679 5679 5679 5679 5679 5678 5680 5680 5678 5676 5674 5672 5670 5667 5664 5660 5657 5652 5650 5647 5644 5642 5639 5637 5635 5634 5633 5631 5628 5625 5622 5618 5615 5612 5609 5606 5603 5599 5596 5592 5587
5674 5674 5673 5673 5673 5674 5675 5676 5676 5675 5674 5671 5669 5667 5664 5661 5658 5656 5653 5649 5646 5643 5641 5638 5635 5632 5629 5627 5626 5624 5621 5618 5615 5611 5607 5605 5601 5598 5594 5591 5587 5583 5579
5668 5668 5667 5668 5668 5669 5669 5671 5671 5670 5668 5666 5664 5662 5659 5656 5653 5650 5647 5646 5644 5642 5639 5636 5633 5629 5625 5624 5622 5619 5615 5612 5609 5604 5599 5595 5592 5588 5585 5581 5578 5574 5570
5662 5661 5661 5661 5662 5663 5663 5664 5665 5664 5662 5659 5658 5656 5653 5650 5647 5644 5640 5639 5638 5637 5635 5634 5630 5627 5625 5621 5617 5614 5610 5606 5603 5598 5592 5588 5584 5581 5577 5574 5570 5566 5562